Weather in Novopokrovskoye

Russia / Saratov Oblast     51°34′27″N   43°36′17″E
temp.,
°C
wind,
m/s
gust,
m/s
humid.,
%
clouds,
%
prec.,
mm/h
press.,
hPa
HPBL,
m
21 april, wed
wed2101:00+10se142390100 1.3 1007954
04:00+11sse10178859 2.1 1009742
07:00+10sse101687100 0.2 10091029
10:00+11s91379100 1.1 10101178
13:00+11s9138289 0.4 10121101
16:00+10sw81178100 0.9 10141109
19:00+10wsw5774100 0.1 1016768
22:00+8sse348386 0.1 101853
22 april, thu
thu2201:00+7sse389250 0.0 1018148
04:00+6ssw37915 0.0 1019121
07:00+6ssw358474 0.0 1020111
10:00+12sw35615 0.0 1021549
13:00+15sw56496 0.1 10211800
16:00+15wsw4648100 0.5 10211977
19:00+13sw226199 0.2 102225
22:00+12sse226599 0.2 102223
23 april, fri
fri2301:00+11ssw1269100 0.0 102211
04:00+11se2269100 0.0 102217
07:00+10se237698 0.0 102248
10:00+14se3459100 0.0 1022446
13:00+16sse4447100 0.2 10211689
16:00+15sse235375 0.5 1019895
19:00+13wnw227266 1.2 101982
22:00+11wnw118196 1.4 101813
24 april, sat
sat2401:00+10s248389 0.0 101786
04:00+8sse348954 0.0 101572
07:00+8s3687100 0.1 1014162
10:00+13s5866100 0.2 1012574
13:00+15sw81051100 0.9 10111780
16:00+9w71185100 2.8 1011798
19:00+7w588063 0.4 10121026
22:00+7sw3775100 0.6 1013368
25 april, sun
sun2501:00+5wsw4108433 0.1 1013268
04:00+4wsw4884100 0.1 1014317
07:00+4sw589341 0.0 1015404
10:00+8wsw676580 0.3 1015825
13:00+10wsw795158 0.6 10161896
16:00+10w71039100 0.9 10162639
19:00+9w574993 0.0 1017973
22:00+6sw3461100 0.0 101854